Regional Weather Roundup
Issued by NWS San Diego, CA

Home | Current Version | Previous Version | Text Only | Print | Product List | Glossary On
Versions: 1 2 3 4 5 6 7 8 9 10 11 12 13 14 15 16 17 18 19 20 21 22 23 24 25 26 27 28 29 30 31 32 33 34 35 36 37 38 39 40 41 42 43 44 45 46 47 48 49 50
000
ASUS46 KSGX 231510
RWRSGX

SAN DIEGO HOURLY WEATHER ROUNDUP
NATIONAL WEATHER SERVICE SAN DIEGO CA
800 AM PDT TUE SEP 23 2014

NOTE: "FAIR" INDICATES FEW OR NO CLOUDS BELOW 12,000 FEET WITH NO
SIGNIFICANT WEATHER AND/OR OBSTRUCTIONS TO VISIBILITY.

CAZ042-043-060-061-PZZ750-775-231600-

GREATER SAN DIEGO AREA

CITY           SKY/WX    TMP DP  RH WIND       PRES   REMARKS
LINDBERGH FLD  PTSUNNY   67  62  84 CALM      29.97R FOG
POINT LOMA       N/A     65  62  90 NW3         N/A
NATIONAL CITY    N/A     67  64  91 CALM      29.97R
CHULA VISTA      N/A     65  64  96 CALM      29.90R
IMPERIAL BEACH CLOUDY    65  64  97 E5        29.96R FOG
BROWN FIELD    FOG       64  63  96 CALM      29.96R VSB<1/4
MIRAMAR MCAS   PTSUNNY   64  61  90 N3        29.96S FOG
MONTGOMERY FLD CLOUDY    65  62  90 N3        29.97R FOG

$$

NORTH SAN DIEGO COUNTY

CITY           SKY/WX    TMP DP  RH WIND       PRES   REMARKS
CAMP PENDLETON FOG       62  57  83 CALM      29.97R VSB 1/2
OCEANSIDE AP   CLOUDY    62  61  96 CALM      29.96R FOG
OCEANSIDE HBR    N/A     63  62  97 N3        29.99R
VISTA            N/A     60  57  89 CALM      29.94R
CARLSBAD       CLOUDY    65  62  90 SW3       29.96R FOG
DEL MAR          N/A     65  64  94 CALM      29.99R
LA JOLLA SCRIP   N/A     65  64  96 NW1       29.94R
FALLBROOK        N/A     60  60 100 CALM      29.97R
ESCONDIDO        N/A     63  61  94 CALM      29.98R
SAN MARCOS       N/A     62  57  86 CALM      29.94R
POWAY            N/A     61  59  93 CALM      29.97R

$$

EAST SAN DIEGO COUNTY

CITY           SKY/WX    TMP DP  RH WIND       PRES   REMARKS
RAMONA         SUNNY     64  51  62 CALM      29.99R
SANTEE LAKES     N/A     60  59  96 CALM      29.97R
LA MESA          N/A     63  62  97 CALM      29.90R
JAMUL            N/A     61  60  95 CALM      29.94R
MT. LAGUNA OBS   N/A     66  41  40 E5        29.81R
CAMPO            N/A     66  44  45 CALM      30.03R

$$

ORANGE COUNTY AND THE LOS ANGELES BASIN

CITY           SKY/WX    TMP DP  RH WIND       PRES   REMARKS
JOHN WAYNE AP  FOG       67  63  87 CALM      29.96S VSB 1
LAGUNA BEACH     N/A    N/A  18   0 CALM      29.92R
LAKE FOREST FR   N/A     62  54  76 CALM      29.87R
SANTA ANA        N/A     62  59  90 CALM      29.92R
HUNTINGTON BCH   N/A     62  61  97 CALM      29.99R
LOS ALAMITOS   SUNNY     63  62  97 CALM      29.97R
FULLERTON        N/A     67  61  81 CALM      29.96R
LONG BEACH     SUNNY     67  63  87 NW5       29.97R
L.A. AP        CLOUDY    66  62  88 NW5       29.98R
L.A. DOWNTOWN  SUNNY     67  61  81 W3        29.97R

$$

THE INLAND EMPIRE

CITY           SKY/WX    TMP DP  RH WIND       PRES   REMARKS
CORONA         SUNNY     62  58  87 CALM      29.98R
CHINO          SUNNY     64  62  93 CALM      29.98S
ONTARIO        SUNNY     68  59  73 CALM      29.98R
SAN BERNARDINO SUNNY     63  50  63 CALM      29.98S
RIVERSIDE AP   SUNNY     65  57  75 CALM      29.98S
RIV CYN CREST    N/A     65  64  96 S2        29.95S
MORENO VALLEY    N/A     69  58  67 CALM      29.18S
MARCH ARB      SUNNY     65  54  69 SE1       30.00R
HORSETHIEF CYN   N/A     66  50  57 SE3       29.98R
PERRIS           N/A     61  52  71 CALM      30.00R
MENIFEE          N/A     62  55  77 CALM      30.05R
HEMET EAST       N/A     73  35  25 CALM      29.95R
FRENCH VALLEY  FAIR      64  54  68 CALM      30.00R
TEMECULA         N/A     58  56  91 CALM      29.96R

$$

SAN BERNARDINO AND RIVERSIDE COUNTY MOUNTAINS

CITY           SKY/WX    TMP DP  RH WIND       PRES   REMARKS
BIG BEAR AP    SUNNY     41  30  65 CALM      30.31S
ANGELUS OAKS     N/A     56  27  32 CALM      29.91R
PINE COVE        N/A     63  36  37 CALM      29.88R

$$

SOUTHERN DESERT INCLUDING THE COACHELLA VALLEY

CITY           SKY/WX    TMP DP  RH WIND       PRES   REMARKS
PALM SPRINGS   SUNNY     81  39  22 NW8       29.93R
THOUSAND PALMS   N/A     76  49  37 E1        29.88R
PALM DESERT      N/A     77  50  39 CALM      28.68
THERMAL        SUNNY     73  51  46 CALM      29.87R
BLYTHE         SUNNY     78  55  44 CALM      29.92R
IMPERIAL AP    SUNNY     77  56  48 CALM      29.88R
EL CENTRO NAS  SUNNY     80  48  32 CALM      29.88R
YUMA AZ        SUNNY     85  65  51 NE6       29.89R

$$

UPPER DESERT

CITY           SKY/WX    TMP DP  RH WIND       PRES   REMARKS
VICTORVILLE AP SUNNY     68  43  40 S3        30.07R
HESPERIA         N/A     66  37  34 W1        30.05R
APPLE VALLEY     N/A     57  44  62 CALM      30.13S
PALMDALE       SUNNY     63  39  41 CALM      30.06R
LANCASTER      SUNNY     59  33  37 CALM      30.05R
EDWARDS AFB    SUNNY     59  35  39 CALM      30.03R
DAGGETT        SUNNY     72  38  29 W8        30.02R
29 PALMS N     SUNNY     70  40  33 NW3       30.09R
NEEDLES        SUNNY     79  39  23 N3        29.96R

$$

REGIONAL REPORTS

CITY           SKY/WX    TMP DP  RH WIND       PRES   REMARKS
SANTA BARBARA  FOG       63  60  90 NE5       29.97R VSB 1/2
SANDBERG       SUNNY     69  34  27 S9        30.16R
MT. WILSON       N/A    N/A N/A N/A MISG        N/A
LAS VEGAS NV   SUNNY     78  42  27 SW3       30.00R
PHOENIX AZ     MOSUNNY   82  55  39 E5        29.95R
ENSENADA NW      N/A     69  32  25 E1        29.93R

$$

OFFSHORE ISLANDS

CITY           SKY/WX    TMP DP  RH WIND       PRES   REMARKS
CATALINA ARPT  SUNNY     65  59  81 CALM      30.01R HAZE
SAN CLEMENTE I PTSUNNY   67  60  78 W8        29.99R
SAN NICOLAS IS MOSUNNY   67  56  67 W10       29.98R

$$

MARINE AND OFFSHORE BUOY REPORTS

STATION/POSITION SKY/WX   TEMP    WIND        PRES    SWELL
                          AIR SEA DIR/SP/G            HT/PER/DIR
                          (F)     (DEG/KT/KT) (MB)    (FT/S/D)
TANNER BANKS               67 70  310/ 14/ 16 1014.9R   3/300/11
S CLEMENTE BASIN           69 73  340/  6/  8 1014.5R   3/240/13
SAN NICOLAS IS.               69                N/A     2/290/11
SO. S. ROSA ISLA           65 68  330/ 16/ 19 1014.5R   2/11
W. S. BARBARA CH           63 63  340/ 14/ 16 1014.2R   3/320/11
S. MONICA BASIN            65 67  350/  2/  6 1014.7R   2/150/14
S PEDRO CHANNEL               72                N/A     2/200/13
DANA POINT                    70                N/A     2/200/13
CMP PENDLETON NS              69                N/A     2/210/13
OCEANSIDE OFFSHR              71                N/A     2/220/13
TORREY PINES OTR              72                N/A     2/250/12
LA JOLLA 1                 66 65   CALM  /  2 1014.4R
MISSION BAY BUOY              71                N/A     2/200/13
SAN DIEGO BAY                 75              1015.0R

$$




USA.gov is the U.S. government's official web portal to all federal, state and local government web resources and services.